Other Public Products
Issued by NWS Charleston, SC

Home | Current Version | Previous Version | Text Only | Print | Product List | Glossary On
Versions: 1 2 3 4 5 6 7 8 9 10 11 12 13 14 15 16 17 18 19 20 21 22 23 24 25 26 27 28 29 30 31 32 33 34 35 36 37 38 39 40 41 42 43 44 45 46 47 48 49 50
000
FPUS82 KCHS 181527
OPUCHS

TEST...KCHS/KSAV Gateway Observations...TEST
National Weather Service Charleston SC
1000 AM EST THU JAN 18 2018

NOTE: "fair" indicates few or no clouds below 12,000 feet with no
significant weather and/or obstructions to visibility.

SCZ050-WAZ558-NCZ071-TXZ119-213-PAZ071-DCZ001-FLZ074-172-MI076-
NYZ176-178-MAZ016-IL014-TNZ027-NJZ106-GAZ044-MD014-181600-

...Gateway Observations for Charleston International...

CITY           SKY/WX    TMP DP  RH WIND       PRES   REMARKS
Chas Airport   FAIR      33  11  39 N12       30.41S WCI  24
Seattle        CLOUDY    43  39  86 S13       29.81R
Charlotte      FAIR      24  11  57 W9        30.36R WCI  14
Dallas DFW     MOSUNNY   26  14  60 S9        30.51S WCI  17
Dallas Love    CLOUDY    26  13  57 S6        30.54S WCI  19
Philladelphia  FAIR      25   5  42 W12       30.14R WCI  14
Wash National  FAIR      30   6  36 NW14      30.20S WCI  19
Baltimore      FAIR      27   8  44 W18G28    30.15F WCI  14
Miami          FAIR      50  37  61 N10       30.33R
Detroit        FAIR      18  10  71 SW15      30.11S WCI   4
Newark         FAIR      26   8  46 W14       30.08R WCI  14
Laguardia      FAIR      25   8  48 NW9       30.06R WCI  15
J F K          FAIR      27   9  46 W8        30.09R WCI  19
Boston Logan   NOT AVBL
Ft. Lauderdale FAIR      49  41  74 N15       30.32R
Chicago O`Hare FAIR      19  10  68 SW20G26   30.11S WCI   3
Chicago Midway FAIR      20  11  68 SW18      30.15R WCI   5
Houston Bush   PTSUNNY   28  18  66 NE7       30.58R WCI  21
Houston Hobby  CLOUDY    31  14  49 E7        30.59R WCI  24
Nashville      FAIR      17  11  77 SE3       30.54R
Atlanta        FAIR      22  10  60 NW9       30.43R WCI  12

$$

GAZ044-118-TXZ119-213-NCZ071-DCZ001-MDZ014-506-PAZ021-071-NJZ106-
NYZ176-178-MAZ106-OHZ011-021-055-MIZ076-KYZ091-ILZ014-INZ047-
MNZ060-ONZ431-181600-

...Gateway Observations for Savannah International...

CITY           SKY/WX    TMP DP  RH WIND       PRES   REMARKS
Savannah Arpt  FAIR      32  10  40 NW13      30.46R WCI  22
Atlanta        FAIR      22  10  60 NW9       30.43R WCI  12
Charlotte      FAIR      24  11  57 W9        30.36R WCI  14
Dallas DFW     MOSUNNY   26  14  60 S9        30.51S WCI  17
Houston Bush   PTSUNNY   28  18  66 NE7       30.58R WCI  21
Wash National  FAIR      30   6  36 NW14      30.20S WCI  19
Wash Dulles    FAIR      28   6  39 NW15      30.19R WCI  16
Baltimore      FAIR      27   8  44 W18G28    30.15F WCI  14
Philadelphia   FAIR      25   5  42 W12       30.14R WCI  14
Newark         FAIR      26   8  46 W14       30.08R WCI  14
Laguardia      FAIR      25   8  48 NW9       30.06R WCI  15
J F K          FAIR      27   9  46 W8        30.09R WCI  19
Boston         NOT AVBL
Pittsburg      FAIR      14   6  70 SW13      30.21R WCI   0
Akron          FAIR      14   5  67 SW14G21   30.19R WCI  -1
Cleveland      FAIR      18   7  62 SW16G23   30.20S WCI   3
Cincinnati     FAIR      15   9  76 SW15      30.34F WCI   0
Columbus       SNOW      14   8  75 SW14      30.32R VSB 1/4 WCI  -1
Detroit        FAIR      18  10  71 SW15      30.11S WCI   4
Chicago O`Hare FAIR      19  10  68 SW20G26   30.11S WCI   3
Minneapolis    FAIR      24  18  77 SW8       29.88F WCI  15
Indianapolis   FAIR      15   7  70 SW20      30.32S WCI  -2
Toronto Canada FLURRIES  18  10  73 SW10      30.03R WCI   6

$$




USA.gov is the U.S. government's official web portal to all federal, state and local government web resources and services.